Location: Baller�as
(41.9020°N, 0.1554°W)
Time: 22:44:58
(UTC+00:00)

Daily predictions for brighter satellites

Satellite Brightness Start Highest point End
(mag) Time Altitude Azimuth Time Altitude Azimuth Time Altitude Azimuth
H-2A R/B 2.5 19:28:51 10° S 19:33:59 66° WSW 19:39:01 10° NNW
Cosmos 1900 4.5 19:30:03 10° SSW 19:34:59 84° WNW 19:40:02 10° NNE
USA 186 0.8 19:35:14 10° SSE 19:37:30 82° ENE 19:39:45 10° N
Cosmos 2082 Rocket 3.3 19:33:58 10° SSE 19:38:23 24° ESE 19:42:48 10° NE
Shenzhou-11 Module 1.4 19:41:59 10° W 19:44:22 77° N 19:46:43 10° E
SL-8 R/B 3.8 19:39:58 10° WNW 19:44:50 88° SSW 19:49:40 10° ESE
ARGOS 3.5 19:39:33 10° S 19:44:55 70° WSW 19:50:18 10° NNW
Cosmos 2218 Rocket 4.2 19:39:56 10° SSW 19:46:06 77° W 19:52:16 10° N
FALCON 9 DEB 3.4 19:43:24 10° SSW 19:46:46 47° SE 19:50:09 10° ENE
Intercosmos 25 4.3 19:44:26 10° NNE 19:47:51 26° ENE 19:50:35 10° SE
CZ-2C R/B 2.6 19:43:33 10° NNE 19:48:43 67° ESE 19:53:54 10° S
Meteor 2-6 Rocket 4.2 19:44:41 10° N 19:50:12 66° ENE 19:55:50 10° SSE
Cosmos 389 Rocket 2.9 19:47:36 10° N 19:50:54 40° ENE 19:54:10 10° SSE
Cosmos 1862 3.4 19:47:36 10° S 19:51:34 57° E 19:55:34 10° NNE
MONITOR-E 3.8 19:50:09 10° SSE 19:52:26 46° ENE 19:54:45 10° N
Cosmos 220 Rocket 4.4 19:48:32 10° N 19:52:36 44° ENE 19:56:34 10° SE
Cosmos 1633 Rocket 4.4 19:49:20 10° SE 19:52:36 21° E 19:55:53 10° NE
IRS-1A Rocket 4.4 19:47:05 10° SSE 19:52:44 82° WSW 19:58:32 10° NNW
DMSP B5D2-2 4.1 19:47:36 10° NNE 19:52:50 68° ESE 19:58:02 10° S
SJ-6B 2.9 19:49:11 10° SSE 19:53:16 90° NE 19:57:17 10° NNW
Cosmos 614 Rocket 4.0 19:50:26 10° S 19:55:30 65° ESE 20:00:40 10° NNE
Cosmos 2251 Rocket 4.4 19:50:28 10° SW 19:55:36 54° WNW 20:00:49 10° N
OBJECT-B 1.2 19:52:44 10° SSE 19:55:52 44° ENE 19:59:02 10° N
Lacrosse 5 4.1 19:52:45 10° NNW 19:56:02 17° NNE 19:59:19 10° NE
SPOT 3 Rocket 3.8 19:54:09 10° SSE 19:59:13 54° ENE 20:04:17 10° N
Cosmos 972 Rocket 3.9 19:54:19 10° NNW 19:59:17 85° WSW 20:04:11 10° SSE
NOSS 3-2 (A) 4.2 19:55:30 10° SSE 19:59:59 25° ESE 20:04:52 10° ENE
Cosmos 1867 4.2 19:56:14 10° S 20:01:04 34° ESE 20:05:56 10° NE
Cosmos 2228 Rocket 3.2 19:58:54 10° N 20:03:20 80° W 20:07:42 10° S
IRIDIUM 104 4.3 19:58:37 10° S 20:03:46 65° E 20:08:56 10° N
Cosmos 1707 Rocket 4.2 20:03:06 10° N 20:07:09 37° ENE 20:10:21 15° SE
BREEZE-M DEB (TANK) 4.5 20:04:23 10° WNW 20:07:43 23° NNW 20:09:35 10° NE
USA 267 3.3 20:01:45 10° NE 20:08:10 57° SE 20:14:34 10° SSW
Cosmos 1980 Rocket 3.2 20:07:46 10° N 20:12:52 32° NE 20:16:37 16° ESE
IRIDIUM 114 4.3 20:07:42 10° S 20:12:54 80° E 20:18:08 10° N
MetOp-A 4.3 20:07:46 10° S 20:13:07 78° WSW 20:18:31 10° NNW
ATLAS 5 CENTAUR R/B 2.7 20:08:34 10° NW 20:14:26 72° WSW 20:20:52 11° SSE
Cosmos 1727 Rocket 4.3 20:10:09 10° NNW 20:16:30 71° W 20:22:47 10° S
Resurs 01 Rocket 1.8 20:14:39 15° SSE 20:18:13 55° ENE 20:22:33 10° N
Meteor 1-27 Rocket 3.9 20:14:16 10° N 20:20:09 61° ENE 20:25:17 14° SSE
Cosmos 1184 Rocket 4.0 20:20:52 22° ESE 20:21:18 23° E 20:23:58 10° NE
IRIDIUM 103 4.4 20:16:49 10° S 20:22:01 85° W 20:27:17 10° N
Meteor 1-10 Rocket 4.4 20:16:48 10° NNW 20:22:30 81° W 20:28:17 10° S
Cosmos 1934 Rocket 4.3 20:17:44 10° SSE 20:23:48 50° E 20:29:56 10° NNE
Cosmos 1833 Rocket 2.7 20:18:47 10° SSW 20:24:23 84° WNW 20:30:04 10° NNE
Cosmos 1697 Rocket 2.7 20:22:12 10° NNW 20:27:50 76° ENE 20:31:56 19° SSE
Cosmos 1656 4.2 20:25:04 10° NNW 20:30:26 57° WSW 20:35:46 10° S
Cosmos 1812 2.9 20:27:29 10° NNW 20:31:19 69° W 20:34:45 12° S
Sich 1 3.2 20:27:12 10° S 20:31:37 80° W 20:36:06 10° N
X-37B 1.1 20:28:37 10° W 20:31:45 57° NNW 20:34:11 15° ENE
SL-4 R/B 2.6 20:29:12 10° WSW 20:33:10 54° NNW 20:36:51 10° NE
Cosmos 1862 Rocket 4.3 20:29:56 10° N 20:34:04 36° ENE 20:35:47 26° ESE
SPOT 5 4.4 20:33:39 15° E 20:34:49 16° ENE 20:37:30 10° NNE
GP-B 3.7 20:31:02 10° NNE 20:35:09 36° E 20:36:51 26° SE
Cosmos 1954 Rocket 4.2 20:31:06 10° S 20:36:13 51° ESE 20:41:22 10° NNE
SL-24 R/B - RUBIN 2 4.5 20:29:48 10° NNW 20:36:28 77° NE 20:40:27 23° SE
H-2A R/B 3.5 20:34:12 10° NNE 20:38:15 55° E 20:41:01 19° S
Spot 2 Rocket 4.0 20:37:07 24° SE 20:39:45 45° ENE 20:44:36 10° N
Cosmos 1821 Rocket 4.2 20:34:40 10° SSW 20:40:47 73° W 20:47:01 10° N
USA 234 4.1 20:37:03 13° E 20:42:20 41° NNE 20:48:22 10° NW
Cosmos 1818 3.9 20:42:24 10° NW 20:47:47 63° WSW 20:51:11 23° SSE
Cosmos 1190 Rocket 4.2 20:43:01 10° SSW 20:48:16 74° WNW 20:53:36 10° NNE
Cosmos 407 Rocket 4.1 20:43:55 10° SSW 20:49:10 59° WNW 20:54:25 10° NNE
Meteor 2-20 4.4 20:44:39 10° N 20:50:51 85° E 20:55:17 20° S
USA 238 DEB 3.5 20:50:12 10° SSW 20:56:43 67° ESE 21:03:29 10° NE
USA 238 3.5 20:50:19 10° SSW 20:56:49 67° ESE 21:03:36 10° NE
Cosmos 1933 Rocket 4.0 20:57:38 37° ESE 20:58:11 39° E 21:02:19 10° NNE
Landsat 7 3.8 20:56:40 34° SE 20:58:37 67° ENE 21:03:22 10° N
Cosmos 1666 Rocket 4.0 20:54:23 10° SSW 20:58:38 60° W 21:02:56 10° N
Meteor 1-4 Rocket 2.5 20:58:11 10° NNW 21:01:39 75° W 21:02:28 48° S
Cosmos 2360 4.3 20:57:25 10° NNW 21:03:09 76° WSW 21:06:10 29° SSE
Meteor 1-25 Rocket 4.2 21:00:53 26° S 21:04:00 64° E 21:09:33 10° NNE
Cosmos 1535 Rocket 4.5 20:58:30 10° S 21:04:40 83° W 21:10:49 10° N
Cosmos 2123 Rocket 4.0 20:59:34 10° N 21:05:49 86° W 21:09:51 24° S
Cosmos 1140 Rocket 4.4 21:04:06 10° SW 21:09:11 50° WNW 21:14:19 10° N
Cosmos 1763 Rocket 4.4 21:05:29 10° N 21:10:18 33° ENE 21:11:34 30° E
Cosmos 192 4.2 21:07:16 10° NNW 21:12:12 79° ENE 21:13:39 46° SSE
Cosmos 1605 Rocket 3.8 21:10:28 23° S 21:14:25 80° E 21:20:31 10° N
SL-16 R/B 3.3 21:09:31 10° N 21:14:31 30° NE 21:16:10 26° E
CENTAUR R/B 2.4 21:14:34 24° S 21:18:03 55° ESE 21:24:35 10° NE
SPOT 1/Viking Rocket 3.5 21:18:20 42° SSE 21:20:09 86° ENE 21:25:25 10° NNW
Cosmos 2082 Rocket 3.1 21:16:35 10° SW 21:22:06 50° WNW 21:27:38 10° NNE
Cosmos 1703 Rocket 4.1 21:18:00 10° N 21:21:58 40° ENE 21:21:58 40° ENE
Cosmos 2278 4.1 21:24:29 10° NNW 21:30:05 58° WSW 21:32:13 36° S
USA 32 4.3 21:27:19 26° SSW 21:30:14 66° W 21:35:27 10° N
Cosmos 2242 Rocket 3.4 21:27:31 10° N 21:31:58 73° E 21:32:08 72° ESE
IGS 5A 4.1 21:31:26 40° SW 21:32:21 49° W 21:36:23 10° NNW
Okean 1-7 3.5 21:30:23 10° N 21:34:11 47° ENE 21:34:11 47° ENE
Cosmos 2322 Rocket 3.0 21:30:18 10° N 21:35:32 36° ENE 21:36:38 33° E
Lacrosse 5 2.6 21:35:19 10° NW 21:40:10 43° NE 21:41:14 38° ENE
Cosmos 1602 3.9 21:41:35 68° WNW 21:41:35 68° WNW 21:45:25 10° N
Cosmos 1850 Rocket 3.9 21:41:29 61° S 21:42:23 78° ESE 21:47:40 10° NNE
Cosmos 1459 Rocket 4.2 21:43:59 48° ESE 21:44:42 51° E 21:50:48 10° NNE
Terra 1.8 21:47:50 66° ENE 21:47:51 66° ENE 21:52:35 10° N
Cosmos 2360 Rocket 3.6 21:43:27 10° N 21:48:08 26° NE 21:49:10 24° ENE
NOSS 3-2 (A) 4.1 21:44:43 10° SW 21:50:16 54° NW 21:56:36 10° NNE
USA 267 4.1 21:44:52 10° NE 21:51:06 49° NNW 21:57:19 10° WSW
Cosmos 1238 Rocket 4.4 21:53:42 24° NW 21:53:42 24° NW 21:55:36 10° NNW
Cosmos 1437 Rocket 3.5 21:49:47 10° N 21:52:35 47° N 21:52:35 47° N
Resurs 01 Rocket 4.2 21:52:45 10° WSW 21:55:02 14° W 21:57:20 10° WNW
ERS-1 Rocket 3.1 21:56:10 59° SW 21:56:47 65° WSW 22:01:47 10° NNW
Cosmos 1980 Rocket 3.2 21:51:41 10° NW 21:56:53 38° WSW 21:58:24 32° SW
Okean 1 3.9 21:53:20 10° NNW 21:56:56 54° WNW 21:56:56 54° WNW
NOSS 3-2 (C) 3.4 21:51:48 10° SW 21:57:24 75° NW 22:03:51 10° NNE
Cosmos 405 Rocket 3.9 21:57:50 36° WNW 21:57:51 36° WNW 22:01:18 10° N
Cosmos 540 Rocket 4.1 21:52:55 10° N 21:57:48 42° ENE 21:57:48 42° ENE
ATLAS 5 CENTAUR R/B 3.8 21:55:42 10° N 21:58:33 27° NE 21:58:55 27° ENE
Cosmos 921 Rocket 3.8 21:54:47 10° NNW 21:58:37 42° W 21:58:37 42° W
BREEZE-M DEB (TANK) 4.4 21:59:44 10° WNW 22:03:15 41° NNE 22:14:01 10° E
Cosmos 841 Rocket 3.9 21:59:12 10° N 22:04:10 50° ENE 22:04:10 50° ENE
X-37B 3.4 22:05:34 10° WNW 22:06:26 17° WNW 22:06:26 17° WNW
Cosmos 1802 Rocket 4.0 22:08:28 63° ESE 22:08:52 64° E 22:15:10 10° NNE
Cosmos 468 Rocket 4.1 22:04:12 10° NNW 22:09:28 67° WSW 22:09:38 66° WSW
Meteor 1-19 Rocket 4.4 22:05:00 10° NNW 22:10:19 60° W 22:10:59 55° SW
SPOT 5 3.4 22:12:53 45° W 22:12:53 45° W 22:16:43 10° NNW
SL-4 R/B 4.3 22:10:29 10° WNW 22:13:20 20° N 22:15:10 14° NNE
Cosmos 2333 Rocket 4.1 22:11:15 10° N 22:15:16 19° NE 22:16:35 18° ENE
Meteor 1-5 Rocket 4.2 22:17:21 80° SE 22:17:33 82° E 22:23:32 10° NNE
Cosmos 1814 Rocket 4.4 22:16:58 10° NNW 22:21:36 56° NE 22:21:36 56° NE
USA 234 3.1 22:24:24 67° S 22:25:04 72° SW 22:31:37 10° NW
Cosmos 1570 Rocket 4.1 22:20:16 10° NNW 22:25:09 73° NNE 22:25:09 73° NNE
Cosmos 2208 Rocket 4.2 22:25:11 10° NNW 22:29:46 64° NNE 22:29:46 64° NNE
Meteor 1-13 Rocket 4.2 22:26:51 10° N 22:31:53 71° NNE 22:31:53 71° NNE
Iridium 4 Rocket 4.2 22:35:07 42° NNW 22:35:07 42° NNW 22:38:04 10° N
ATLAS 3B R/B 2.5 22:35:32 71° E 22:35:32 71° E 22:41:44 10° NE
Cosmos 44 3.8 22:31:03 10° NNW 22:35:07 59° N 22:35:07 59° N
Meteor 2-4 Rocket 4.0 22:33:40 10° NNW 22:39:05 56° W 22:39:05 56° W
MOS 1-B Rocket 3.9 22:34:57 10° NNE 22:40:00 71° NE 22:40:00 71° NE
Lacrosse 4 Rocket 4.0 22:53:53 15° NE 22:53:53 15° NE 22:54:37 10° NE
Tsikada Rocket 4.0 22:44:05 10° N 22:50:09 71° ENE 22:50:09 71° ENE
SL-16 R/B 3.1 22:53:25 10° NW 22:58:01 39° W 22:58:01 39° W
Cosmos 2322 4.3 22:58:11 10° NNW 23:03:02 48° NE 23:03:02 48° NE
Cosmos 2219 Rocket 3.2 23:00:37 10° N 23:05:36 37° NE 23:05:36 37° NE
ALOS 2 4.3 23:09:38 29° NNE 23:09:38 29° NNE 23:12:00 10° N
CENTAUR R/B 4.1 23:03:37 10° WSW 23:09:05 33° NW 23:15:26 10° NNE
Cosmos 1725 Rocket 4.4 23:18:03 55° W 23:18:08 55° W 23:24:22 10° N
Cosmos 2322 Rocket 3.5 23:14:25 10° NW 23:18:26 32° W 23:18:26 32° W
Lacrosse 5 3.8 23:18:26 10° WNW 23:20:24 21° WNW 23:20:24 21° WNW
Terra 4.3 23:26:43 13° W 23:26:43 13° W 23:28:14 10° WNW
Cosmos 2360 Rocket 3.2 23:26:56 10° NW 23:30:55 40° WNW 23:30:55 40° WNW
COSMOS 2428 3.3 23:35:32 10° NNW 23:40:11 53° NNE 23:40:11 53° NNE
Cosmos 2297 Rocket 4.2 23:46:33 18° ENE 23:46:33 18° ENE 23:48:39 10° NE
